Huntington, WV

8:11 AM EST on February 19, 2017 (GMT -0500)
Tri-State / Ferguson

Weather History for KHTS - September, 2012

Change the Weather History Date:

Monday, September 24, 2012

  Actual Average Record
Temperature  
Mean Temperature 53 °F 64 °F  
Max Temperature 68 °F 76 °F 94 °F (1941)
Min Temperature 37 °F 53 °F 31 °F (1983)
Degree Days  
Heating Degree Days 12 3  
Month to date heating degree days 44 29  
Since 1 July heating degree days 44 31  
Cooling Degree Days 0 3  
Month to date cooling degree days 120 121  
Year to date cooling degree days 1297 1098  
Growing Degree Days 2 (Base 50)    
Moisture  
Dew Point 39 °F    
Average Humidity 64    
Maximum Humidity 100    
Minimum Humidity 28    
Precipitation  
Precipitation 0.00 in 0.09 in 1.39 in (1986)
Month to date precipitation 3.98 2.26  
Year to date precipitation 29.27 32.51  
Snow  
Snow 0.00 in - - ()
Month to date snowfall 0.0  
Since 1 September snowfall 0.0  
Snow Depth 0.00 in    
Sea Level Pressure  
Sea Level Pressure 30.22 in    
Wind  
Wind Speed 2 mph (South)    
Max Wind Speed 10 mph    
Max Gust Speed 15 mph    
Visibility 8 miles    
Events      
T = Trace of Precipitation, MM = Missing Value Source: NWS Daily Summary

Daily Weather History Graph

Daily Weather History Graph

Search for Another Location

Airport or City:

Trip Planner

Search our weather history database for the weather conditions in past years. The results will help you decide how hot, cold, wet, or windy it might be!

Date:

Astronomy

Sep. 24, 2012 Rise Set
Actual Time 7:20 AM EDT 7:23 PM EDT
Civil Twilight 6:53 AM EDT 7:49 PM EDT
Nautical Twilight 6:22 AM EDT 8:20 PM EDT
Astronomical Twilight 5:51 AM EDT 8:51 PM EDT
Moon 4:04 PM EDT (9/24) 1:39 AM EDT (9/24)
Length of Visible Light 12h 55m
Length of Day
12h 03m
Waxing Gibbous, 70% of the Moon is Illuminated
Sep 24
Waxing Gibbous
Sep 29
Full
Oct 8
Last Quarter
Oct 15
New
Oct 21
First Quarter

Hourly Weather History & Observations

Time (EDT) Temp. Dew Point Humidity Pressure Visibility Wind Dir Wind Speed Gust Speed Precip Events Conditions
12:51 AM 44.1 °F 42.1 °F 93% 30.24 in 10.0 mi Calm Calm - N/A   Scattered Clouds
1:51 AM 44.1 °F 42.1 °F 93% 30.24 in 7.0 mi Calm Calm - N/A   Clear
2:51 AM 43.0 °F 41.0 °F 93% 30.24 in 6.0 mi Calm Calm - N/A   Clear
3:51 AM 42.1 °F 39.9 °F 92% 30.25 in 5.0 mi Calm Calm - N/A   Clear
4:51 AM 39.0 °F 37.9 °F 96% 30.26 in 4.0 mi Calm Calm - N/A   Clear
5:09 AM 39.2 °F 37.4 °F 93% 30.26 in 2.5 mi Calm Calm - N/A   Clear
5:17 AM 39.2 °F 37.4 °F 93% 30.26 in 3.0 mi Calm Calm - N/A   Clear
5:39 AM 39.2 °F 37.4 °F 93% 30.26 in 2.5 mi Calm Calm - N/A   Clear
5:49 AM 39.2 °F 37.4 °F 93% 30.26 in 3.0 mi Calm Calm - N/A   Clear
5:51 AM 39.0 °F 37.9 °F 96% 30.26 in 3.0 mi Calm Calm - N/A   Clear
6:43 AM 37.4 °F 37.4 °F 100% 30.27 in 1.8 mi Calm Calm - N/A   Clear
6:51 AM 37.9 °F 37.0 °F 97% 30.27 in 1.0 mi Calm Calm - N/A   Clear
7:51 AM 39.0 °F 37.9 °F 96% 30.30 in 6.0 mi Calm Calm - N/A   Clear
8:51 AM 44.1 °F 42.1 °F 93% 30.30 in 6.0 mi Calm Calm - N/A   Clear
9:51 AM 50.0 °F 43.0 °F 77% 30.30 in 9.0 mi Calm Calm - N/A   Clear
10:51 AM 57.0 °F 45.0 °F 64% 30.30 in 10.0 mi Calm Calm - N/A   Clear
11:51 AM 60.1 °F 37.9 °F 44% 30.28 in 10.0 mi SSW 4.6 mph - N/A   Clear
12:51 PM 62.1 °F 33.1 °F 34% 30.26 in 9.0 mi Calm Calm - N/A   Clear
1:51 PM 64.0 °F 33.1 °F 31% 30.23 in 10.0 mi Calm Calm - N/A   Clear
2:51 PM 66.0 °F 32.0 °F 28% 30.20 in 10.0 mi Variable 4.6 mph - N/A   Clear
3:51 PM 66.9 °F 34.0 °F 30% 30.17 in 10.0 mi Variable 4.6 mph - N/A   Clear
4:51 PM 66.9 °F 36.0 °F 32% 30.15 in 10.0 mi Variable 3.5 mph - N/A   Clear
5:51 PM 66.0 °F 36.0 °F 33% 30.13 in 10.0 mi SW 9.2 mph - N/A   Clear
6:51 PM 63.0 °F 37.9 °F 40% 30.12 in 10.0 mi South 5.8 mph - N/A   Clear
7:51 PM 60.1 °F 37.9 °F 44% 30.12 in 10.0 mi South 3.5 mph - N/A   Clear
8:51 PM 55.9 °F 39.9 °F 55% 30.12 in 10.0 mi Calm Calm - N/A   Clear
9:51 PM 51.1 °F 42.1 °F 71% 30.12 in 10.0 mi East 3.5 mph - N/A   Clear
10:51 PM 48.9 °F 43.0 °F 80% 30.12 in 10.0 mi Calm Calm - N/A   Clear
11:51 PM 46.0 °F 43.0 °F 89% 30.12 in 10.0 mi Calm Calm - N/A   Clear